Reflectivity
-20 -2 -20 -20 12 2 -20 -20 -20 -20 -20 -20 -20 -20 -20 7 -20 -19 14 2 13 17 14 -19 13 7 -0 -20 12 14 -1 11 15
15 10 -20 -20 -5 -19 -19 -20 -20 -20 -20 -20 -20 -20 -20 -20 14 -7 -20 -20 18 6 14 13 12 -19 -4 7 -17 -5 13 1 -11
13 4 -20 4 -20 -16 -20 -20 -20 -20 -20 -20 -20 -20 -20 -20 -18 -11 -20 17 2 1 13 -3 -20 -20 -20 -20 -11 -17 -15 -20 -20
5 1 -20 -14 8 -17 -20 -20 -20 -20 -20 -20 -20 -20 -20 -20 -20 -20 -20 -1 -15 -19 -20 -20 -20 -20 -20 -20 -20 -20 -20 -20 -20
-20 -4 -20 -16 -20 -20 -20 -20 -20 -20 -20 -20 -20 -20 -20 -20 -20 -20 -20 -20 -20 -17 -20 -20 -20 -20 -20 -20 -20 -20 -20 -20 -20
-20 -13 -9 -1 -20 -20 -20 -20 -20 -20 -20 -20 -20 -20 -20 -20 -20 -20 -20 -20 -20 -20 -20 -20 -20 -20 -20 -20 -20 -20 -20 -20 -20
-20 -20 -20 -20 -14 -20 -20 -20 -20 -20 -20 -20 -20 -20 -20 -20 -20 -20 -20 -20 -20 -20 -20 -20 -20 -20 -20 -20 -20 -20 -20 -20 -20
-20 -20 -20 -20 -20 -20 -20 -20 -20 -20 -20 -20 -20 -20 -20 -20 -20 -20 -20 -20 -20 -20 -20 -20 -20 -20 -20 -20 -20 -20 -20 -20 -20
-20 -20 -20 -20 -20 -20 -20 -20 -20 -20 -20 -20 -20 -20 -20 -20 -20 -20 -20 -20 -20 -20 -20 -20 -20 -20 -20 -20 -20 -20 -20 -20 -20
-20 -20 -20 -20 -20 -20 -20 -20 -20 -20 -20 -20 -20 -20 -20 -20 -20 -20 -20 -20 -20 -20 -20 -20 -20 -20 -20 -20 -20 -20 -20 -20 -20
-20 -20 -20 -20 -20 -20 -20 -20 -20 -20 -20 -20 -20 -20 -20 -20 -20 -20 -20 -20 -20 -20 -20 -20 -20 -20 -20 -20 -20 -20 -20 -20 -20
-20 -20 -20 -20 -20 -20 -20 -20 -20 -20 -20 -20 -20 -20 -20 -20 -20 -20 -20 -20 -20 -20 -20 -20 -20 -20 -20 -20 -20 -20 -20 -20 -20
-20 -20 -20 -20 -20 -20 -20 -20 -20 -20 -20 -20 -20 -20 -20 -20 -20 -20 -20 -20 -20 -20 -20 -20 -20 -20 -20 -20 -20 -20 -20 -20 -20
-20 -20 -20 -20 -20 -20 -20 -20 -20 -20 -20 -20 -20 -20 -20 -20 -20 -20 -20 -20 -20 -20 -20 -20 -20 -20 -20 -20 -20 -20 -20 -20 -20
-20 -20 -20 -20 -20 -20 -20 -20 -20 -20 -20 -20 -20 -20 -20 -20 -20 -20 -20 -20 -20 -20 -20 -20 -20 -20 -20 -20 -20 -20 -20 -20 -20
-20 -20 -20 -20 -20 -20 -20 -20 -20 -20 -20 -20 -20 -20 -20 -20 -20 -20 -20 -20 -20 -20 -20 -20 -20 -20 -20 -20 -20 -20 -20 -20 -20
-20 -20 -20 -20 -20 -20 -20 -20 -20 -20 -20 -20 -20 -20 -20 -20 -20 -20 -20 -20 -20 -20 -20 -20 -20 -20 -20 -20 -18 -20 -20 -20 -20
-20 -20 -20 -20 -20 -20 -20 -20 -20 -20 -20 -20 -20 -20 -20 -20 -20 -20 -20 -20 -20 -20 -20 -20 -20 -20 -20 -20 -20 -20 -20 -20 -20
-20 -20 -20 -20 -20 -20 -20 -20 -20 -20 -20 -20 -20 -20 -20 -20 -20 -20 -20 -20 -20 -20 -20 -20 -20 -20 -20 -20 -20 -20 -20 -20 -20
-19 -5 27 -20 -20 -20 -1 -20 -20 15 -20 -20 -20 -20 -20 -20 -20 -20 -20 -20 -20 -20 -20 -20 -20 -20 -20 -20 -20 -20 -20 -20 -20
Wind_Speed
3 10 9 11 13 14 13 12 11 10 9 9 8 5 3 7 6 9 9 10 14 13 16 17 14 15 17 11 11 15 17 17 18
13 14 11 13 15 13 12 12 11 10 8 7 6 2 5 5 7 8 7 10 14 16 14 14 13 14 16 15 16 15 14 14 15
13 14 13 14 13 12 11 10 9 8 7 6 6 2 6 2 8 9 7 10 14 14 12 12 13 14 15 15 14 14 14 14 15
10 13 11 11 11 10 9 9 8 8 7 6 6 1 6 3 5 6 7 9 12 13 12 12 12 12 13 13 13 14 14 14 14
8 8 9 9 9 9 8 8 8 7 6 6 5 3 6 4 4 6 7 9 9 9 10 10 11 11 11 12 12 12 13 13 13
10 5 11 8 9 8 8 7 7 7 5 5 4 6 3 4 3 7 8 8 9 9 10 9 10 10 10 10 11 11 12 12 12
8 10 8 7 8 7 8 9 8 8 6 5 4 6 3 3 1 7 8 9 9 9 9 8 9 9 9 9 10 10 11 11 11
6 6 6 7 7 7 7 7 6 9 5 7 7 4 3 3 3 8 9 9 8 8 8 7 8 8 8 9 9 10 10 10 10
7 6 8 8 7 9 8 7 9 6 6 6 5 4 3 1 1 8 8 9 8 8 8 7 7 7 7 8 8 8 9 9 9
8 7 8 7 8 8 8 7 6 7 7 5 4 3 3 2 2 6 9 8 8 8 7 7 7 7 7 7 7 7 8 8 8
7 7 7 8 7 7 7 7 6 6 6 6 5 5 4 4 3 7 6 6 8 7 7 7 6 6 6 6 5 4 5 6 6
8 7 7 7 7 9 7 8 7 6 6 7 6 5 6 5 5 4 8 6 5 7 8 7 6 6 5 5 5 4 3 3 4
9 7 7 8 7 8 7 7 7 6 6 6 5 5 4 6 6 5 4 7 7 5 8 9 8 6 5 4 3 3 3 3 4
10 8 8 10 7 7 7 7 8 7 6 6 5 5 4 5 5 7 6 5 4 6 7 7 7 7 6 5 3 2 1 2 4
11 9 10 9 7 8 7 8 8 7 6 7 6 5 4 4 5 6 6 6 6 5 9 6 5 7 6 5 3 1 1 3 4
12 9 11 10 10 10 10 9 9 7 7 6 5 4 6 6 6 6 7 7 8 7 7 6 6 5 7 5 3 1 0 1 4
12 12 11 12 9 12 12 11 8 7 8 7 6 5 6 7 8 7 7 8 6 7 7 7 5 4 6 6 4 3 2 2 5
14 13 11 11 11 10 12 11 13 9 8 11 4 4 5 6 6 8 6 7 6 6 7 6 5 4 3 7 6 5 2 3 7
13 13 13 12 10 12 12 11 11 11 9 7 10 3 3 4 3 4 7 7 7 5 4 4 3 4 3 6 8 6 1 3 7
12 13 13 13 11 11 13 12 14 11 9 9 4 7 5 5 2 4 4 2 2 2 3 4 4 4 3 3 6 6 2 5 8
Wind_Direction
204 156 119 107 119 119 114 117 118 114 103 95 98 107 244 282 106 75 68 62 77 94 69 73 76 51 63 80 63 60 52 49 57
114 121 116 116 120 118 117 122 122 116 104 92 99 129 287 278 80 66 50 71 78 69 66 67 65 60 63 60 57 53 50 49 48
114 114 115 119 121 120 119 121 125 116 101 88 100 157 292 78 99 114 74 75 79 76 69 67 67 69 65 62 59 55 54 51 48
108 115 118 123 125 123 124 128 129 124 113 106 124 124 303 25 69 94 95 74 80 78 75 67 67 67 69 67 60 57 54 52 54
116 118 125 124 120 122 128 134 137 131 130 123 136 184 262 110 126 76 91 87 81 81 75 77 73 75 73 70 64 60 59 55 54
155 119 127 137 136 142 144 145 137 126 123 142 175 230 235 112 85 90 103 96 92 91 90 83 79 77 75 72 66 63 62 58 56
179 133 134 146 144 152 158 152 160 197 165 166 208 237 160 116 126 96 116 110 104 101 98 89 84 80 76 69 66 62 62 60 57
176 157 167 173 171 176 173 169 199 213 192 161 199 204 151 150 126 111 132 126 113 109 104 98 95 89 80 72 67 62 58 57 57
191 173 180 184 176 189 193 188 206 196 207 195 183 193 156 190 158 127 144 135 125 119 117 112 106 96 87 80 72 67 61 53 50
191 191 185 188 180 193 196 203 185 197 198 203 188 185 188 177 181 116 131 134 136 134 134 130 125 119 103 88 75 61 57 54 49
198 197 196 197 194 199 202 205 197 205 199 199 188 189 181 197 203 129 136 135 148 152 152 147 142 138 120 113 104 76 55 46 39
197 205 201 206 198 206 206 205 203 207 205 197 195 196 192 193 191 166 144 146 136 167 166 156 153 144 131 126 111 89 45 35 24
202 210 206 207 205 209 202 204 202 210 196 203 194 200 196 202 193 183 181 163 169 169 177 165 163 158 151 138 123 105 65 24 356
205 208 211 209 207 208 208 204 199 201 196 202 199 207 197 207 202 196 193 188 181 177 139 160 159 158 158 153 143 121 79 352 331
203 210 211 207 207 210 209 213 201 205 197 205 199 200 211 209 202 211 198 195 208 200 156 158 162 165 167 165 161 197 340 322 318
208 214 213 209 208 210 211 209 206 213 204 186 198 214 216 214 218 214 202 200 195 204 185 181 174 170 173 164 166 168 108 352 327
211 212 219 210 211 214 211 206 204 205 206 191 188 203 200 221 213 209 215 203 189 209 201 197 203 176 178 145 136 131 84 346 313
222 215 217 218 212 211 213 203 203 202 196 215 193 201 228 149 187 210 205 215 188 197 202 208 189 187 160 143 144 138 84 322 304
222 225 217 227 219 212 214 207 203 201 200 195 240 281 338 201 162 208 214 213 214 185 176 186 186 197 218 108 109 141 137 297 301
244 229 232 225 230 222 217 213 204 206 209 201 165 223 220 261 277 159 179 226 203 210 160 184 192 193 206 147 155 156 235 286 298